STARLINK-32783, 62606

Orbit data source: Space-Track

STARLINK-32783, 62606 is a payload satellite owned by SpaceX/Seattle (US) in LEO that was launched on Mon, 13 Jan 2025 UTC via an FALCON 9 launch vehicle from the Air Force Eastern Test Range (AFETR). Payloads include a variety of satellites, spacecraft, and rockets equipped with specific instruments for various scientific and technological missions. These include communications satellites like Starlink; space stations such as the ISS; scientific satellites like the Hubble; Earth observation satellites from companies like Planet Labs, Umbra, and HawkEye 360; GPS; miniature CubeSats for education and research; and military/defense satellites.

Loading next visibility...
STARLINK-32783 details
Identifier
62606, 2025-008V
Orbit
LEO
Last TLE update10 hours ago
Origin
Flag of USSpaceX/Seattle (US)
ManufacturerSpaceX/Seattle
MissionOperational spacecraft
Bus & MotorSTARLINK V2M, Unknown motor
Mass730 kg wet, ~700 kg dry
Launch date (UTC)
2025-01-13 (1 month ago)
Launch vehicle
FALCON 9
Launch site
Air Force Eastern Test Range (AFETR)
Object type
Payload
Rocket body
Debris
Shape & HBRUnknown
Radar Cross SectionLarge (>1 m²)

Expand to show TLE details & history

TLE from 10 hours ago
0 STARLINK-32783
1 62606U 25008V   25047.10000297  .00010572  00000-0  26038-3 0  9999
2 62606  43.0011 302.6382 0001292 270.0507  90.0201 15.40655766  6418
Epoch: 2025-02-16T02:24Z
Definitive object data (Epoch: 2025-02-16T02:24:00.256Z)
Latitude-0.00005°
Longitude120.29916°
Altitude443.947 km
Speed7.648 km/s
True Right ascension20h 10m 33s
True Declination0° 00' 00"
Sunlit
Object was in daylight at TLE epoch
Visualization TLE readout
Latitude28.58968°
Longitude-97.61531°
Altitude445.142 km
Speed7.649 km/s
Apparent Right ascension04h 30m 21s
Apparent Declination-4° 34' 24"
Sunlit
Object is in full shadow
Visualization observer readout
Local Sidereal Time15:05:48
Azimuth326.125° NNW
Elevation-49.842°
Doppler factor1
Orbital elements
Apogee altitude447.01 km
Perigee altitude445.247 km
Semi-major axis6,824.266 km
Eccentricity0.0001292
Inclination43.0011°
RAAN302.6382°
Arg. of periapsis270.0507°
True anomaly90.03491°
Mean anomaly90.0201°
Eccentric anomaly90.0275°
Mean motion3.84999 °/min
BSTAR0.00026038
Orbital period93.51 mins
Loading maneuver chart data...
Loading historical data...
Loading historical data...
Loading historical data...
Loading historical data...
Loading historical data...
Loading historical data...
Loading historical data...

STARLINK-32783 Visibility forecast

Observer location: undefined°, undefined

Span
Click to sort rows by Start time (UTC) header in descending order
Start Az.
Max El. time (UTC)
Max El. Az.
Max El.
End time (UTC)
End Az.
5 mins2025-02-16 19:42:17.642Z196.537° SSW2025-02-16 19:45:17.642Z133.145° SE20.411°2025-02-16 19:47:17.642Z96.417° ESE
5 mins2025-02-16 21:20:17.642Z253.352° W2025-02-16 21:22:17.642Z264.381° W43.701°2025-02-16 21:25:17.642Z71.137° E
4 mins2025-02-16 22:59:17.642Z298.11° NW2025-02-16 23:01:17.642Z26.531° NE35.598°2025-02-16 23:03:17.642Z70.819° E
5 mins2025-02-17 00:37:17.642Z290.637° WNW2025-02-17 00:39:17.642Z71.928° E44.457°2025-02-17 00:42:17.642Z105.818° ESE
4 mins2025-02-17 02:15:17.642Z252.633° W2025-02-17 02:17:17.642Z203.382° SW21.605°2025-02-17 02:19:17.642Z163.681° S
|